Tracking 19170 objects as of 23-May-2018
HD Live streaming from Space Station
objects crossing your sky now

NOAA 16 DEB

Track NOAA 16 DEB now!
10-day predictions


NORAD ID: 41377
Int'l Code: 2000-055JW
Perigee: 834.9 km
Apogee: 877.2 km
Inclination: 98.9 °
Period: 101.9 minutes
Semi major axis: 7227 km
RCS: Unknown
Launch date: September 21, 2000
Source: United States (US)
Launch site: AIR FORCE WESTERN TEST RANGE (AFWTR)

Note: This is SATELLITE DEBRIS
aabbcc
Your satellite tracking list
Your tracking list is empty




NASA's NSSDC Master Catalog

Two Line Element Set (TLE):
1 41377U 00055JW  18141.99966850  .00000658  00000-0  37500-3 0  9996
2 41377  98.9021 220.5229 0029254 149.0813 211.2089 14.13053672121697
Source of the keplerian elements: AFSPC